Wind_Speed
28 27 29 31 32 33 34 34 35 36 38 38 39 39 40 40 40 40 40 40 41 41 41 41 42 42 43 43 43 42 41 40 40 41 40 38 37 37 38 39 39 39 40
26 27 29 31 31 32 33 35 35 35 36 37 38 38 38 38 38 38 38 39 39 39 39 39 40 40 41 41 41 42 41 41 41 42 42 40 38 38 39 40 40 40 41
27 29 31 31 32 33 35 36 36 36 36 37 38 38 38 36 35 36 36 36 36 36 36 37 38 39 40 41 41 42 42 42 42 43 43 42 39 38 37 38 38 37 36
27 29 30 32 32 34 36 36 36 36 37 38 38 39 40 39 39 38 38 38 37 37 38 38 39 40 41 41 42 42 42 42 42 43 43 43 41 39 37 37 36 33 31
24 28 30 31 32 33 34 36 38 39 40 41 41 41 41 42 42 41 41 40 40 40 41 41 42 42 42 42 43 43 43 43 43 43 44 44 43 41 40 37 35 33 31
26 28 29 29 30 31 33 34 37 38 40 42 43 43 43 43 43 42 42 41 41 41 41 42 42 42 43 43 44 45 44 44 44 45 45 45 44 43 41 37 35 34 33
27 27 28 28 29 29 31 32 34 36 38 40 41 43 43 44 44 44 43 42 41 40 40 40 41 41 42 43 44 44 45 45 46 46 45 45 44 42 39 37 35 33 31
27 27 29 30 31 31 33 34 36 37 38 39 39 40 41 42 43 44 45 44 43 42 41 41 41 41 42 43 43 44 45 46 46 45 43 42 40 38 36 34 32 31 31
28 30 32 33 34 35 36 38 38 39 39 40 40 39 39 40 41 42 43 44 44 43 42 42 42 42 43 43 43 42 42 42 41 40 38 36 33 31 29 30 31 31 32
30 32 33 33 34 35 37 38 39 40 40 41 41 40 39 38 39 40 40 40 41 41 41 42 42 42 41 40 39 37 35 34 32 31 30 28 27 26 26 28 29 30 31
31 33 35 35 35 36 37 39 39 40 41 41 41 40 38 37 37 38 38 38 37 38 39 39 39 38 36 34 32 29 27 26 24 23 23 23 23 25 26 27 28 29 29
34 36 39 40 39 38 38 39 40 40 41 42 41 40 38 36 34 34 34 33 34 34 34 33 33 32 30 28 25 24 23 22 21 21 21 22 23 24 24 23 22 22 21
38 40 43 45 44 42 40 40 41 40 40 41 41 39 37 35 32 30 29 29 29 29 29 29 28 27 26 23 21 21 21 21 22 21 20 19 19 18 18 17 16 15 14
43 45 47 48 48 47 45 43 43 42 41 40 39 38 36 35 32 30 28 27 26 26 25 25 24 22 20 19 19 20 22 23 22 22 19 17 15 14 14 14 14 14 14
47 48 49 50 51 51 50 48 45 44 42 39 38 36 35 34 32 30 28 26 24 23 23 22 20 18 17 18 19 20 22 22 21 19 17 15 14 14 13 13 13 14 15
51 51 52 52 53 54 53 51 47 44 42 39 36 35 34 32 31 30 28 25 23 22 21 19 17 15 15 15 17 18 19 19 18 17 15 14 13 12 12 12 13 14 15
57 58 57 57 56 56 55 53 48 44 42 39 36 34 32 31 30 29 27 25 22 21 19 17 14 12 11 14 16 17 16 16 15 14 13 12 12 12 13 13 14 14 15
62 63 63 62 61 60 58 55 50 44 41 39 37 34 32 30 28 27 26 24 22 20 18 15 13 11 10 11 12 13 14 14 14 13 12 12 12 12 12 12 12 12 13
67 68 69 69 68 65 61 58 52 46 42 39 38 35 32 29 28 27 25 23 21 18 17 16 15 13 12 11 11 12 13 12 12 12 11 10 10 10 10 10 11 12 12
73 74 74 74 72 69 65 61 56 50 45 40 38 36 34 31 28 26 25 23 21 18 17 16 16 16 15 13 12 12 13 13 12 11 10 10 9 9 10 10 9 9 8
79 80 80 79 76 74 70 67 62 54 49 45 41 37 36 33 30 27 25 23 20 18 16 16 17 16 14 13 12 11 12 13 12 11 11 10 9 9 9 8 8 8 8
80 79 76 73 70 70 69 67 63 57 52 48 44 40 37 36 32 28 26 23 20 18 16 15 15 14 13 12 12 13 12 13 13 12 11 10 9 9 9 9 8 7 8
69 62 57 54 53 54 55 55 56 56 54 52 49 44 39 37 34 31 28 24 20 18 17 15 13 11 11 11 12 12 12 12 13 12 11 11 10 10 9 8 8 8 9
48 46 45 45 44 45 45 45 47 51 54 54 51 47 42 38 36 33 30 26 21 18 17 15 13 12 12 12 12 12 12 12 12 12 12 11 10 10 10 9 9 9 10
40 41 42 42 42 42 42 42 42 45 50 53 52 47 42 40 37 35 33 28 24 20 19 17 16 15 14 14 13 13 13 13 13 13 12 12 11 11 11 10 10 10 10
42 43 43 42 42 41 40 39 39 43 46 48 49 47 44 41 39 37 35 31 26 22 21 20 19 18 16 14 13 13 14 14 14 13 13 12 12 11 11 11 10 10 11
Wind_Direction
291 293 297 298 298 298 295 290 285 282 282 282 281 281 280 280 280 280 280 279 278 277 276 274 273 273 274 275 276 278 279 280 281 282 282 281 281 279 276 274 272 270 268
292 296 299 300 299 299 299 296 293 290 288 287 286 284 282 281 280 279 279 279 279 278 277 277 276 276 276 277 277 277 279 280 280 281 282 282 282 281 277 275 274 271 269
289 292 296 297 296 297 297 297 295 293 291 290 290 289 288 286 284 282 282 282 282 282 280 279 279 279 279 279 279 279 279 279 279 279 280 281 280 280 277 276 275 272 267
288 294 298 295 292 292 294 294 294 294 293 292 289 288 286 285 284 283 282 283 284 284 284 283 283 283 282 282 280 279 279 278 278 277 278 279 279 280 277 276 274 267 263
296 297 297 295 293 293 295 296 297 297 296 293 290 287 285 284 283 282 281 281 282 282 283 283 283 282 282 282 281 280 280 279 278 277 276 276 276 276 277 275 269 264 259
297 297 298 299 302 304 304 303 301 300 297 295 292 289 286 284 282 282 281 281 280 281 281 282 282 282 281 281 280 280 280 279 278 277 276 275 274 272 273 272 269 264 257
303 305 308 310 314 315 314 312 311 309 306 301 297 293 289 286 284 283 282 282 282 282 282 283 284 283 282 281 280 279 279 278 278 277 275 274 272 270 269 268 266 262 257
315 318 319 321 324 325 325 324 323 321 317 312 308 301 295 291 288 286 285 285 286 286 286 286 287 286 285 283 281 278 276 276 276 274 274 273 270 268 265 264 262 258 257
321 323 322 323 325 326 327 327 327 326 324 322 318 312 303 296 293 291 290 289 289 288 288 287 287 287 286 284 280 277 275 274 273 272 270 269 267 264 261 259 257 256 257
321 320 318 317 319 320 321 322 325 326 327 326 324 318 310 301 296 294 294 293 292 290 289 287 287 286 284 282 280 276 273 269 268 266 265 262 259 255 253 252 250 251 253
314 313 311 312 313 314 315 316 319 321 323 324 324 321 315 306 299 296 296 295 293 291 289 288 287 285 283 281 277 271 265 260 257 254 250 246 242 239 239 242 245 249 250
310 308 307 307 309 310 310 311 312 314 316 319 322 321 317 310 303 298 296 296 295 294 293 292 290 286 282 277 269 260 249 241 236 231 226 225 225 226 232 238 240 242 242
302 301 300 302 303 305 306 307 308 310 311 314 318 320 317 312 306 301 299 299 299 299 299 296 294 286 279 269 255 241 232 225 221 218 216 221 228 233 238 244 247 247 247
295 296 298 299 300 301 302 303 304 306 308 310 313 316 316 312 306 301 300 301 302 302 302 301 297 285 272 258 241 228 224 223 223 225 229 237 244 248 251 251 252 254 257
296 297 297 296 297 297 298 299 300 300 303 306 308 311 313 311 305 299 299 300 302 303 305 304 298 281 265 251 237 229 224 227 231 234 237 243 252 256 255 253 253 257 262
294 294 293 293 294 294 295 296 296 296 296 299 303 305 308 308 303 297 296 298 300 301 304 304 300 283 262 244 236 232 231 235 238 239 240 245 249 251 252 254 256 259 261
292 293 293 293 293 293 293 294 294 293 292 293 296 298 301 302 299 294 292 294 296 298 301 303 305 289 267 245 237 234 238 241 239 237 243 245 246 250 253 256 260 262 263
292 293 292 291 290 290 289 290 289 289 288 288 289 291 292 294 292 288 287 287 290 294 296 297 300 297 284 260 245 240 241 241 239 240 242 243 245 250 254 255 257 260 264
288 287 286 287 287 286 285 284 283 282 281 282 282 282 283 284 283 280 278 279 281 286 288 290 290 289 284 272 254 245 239 239 239 240 238 238 241 246 251 254 257 260 262
288 287 286 286 285 284 282 280 278 275 272 272 273 274 274 274 273 270 267 267 271 275 277 282 283 281 276 266 253 243 236 233 231 230 229 231 236 244 249 251 251 250 255
291 290 289 287 285 282 279 275 273 269 264 262 263 264 265 264 261 258 255 256 260 265 268 272 275 275 268 256 244 234 229 225 222 221 223 228 233 236 238 235 237 248 267
294 293 291 289 287 283 279 273 267 262 256 252 251 253 255 253 250 246 243 245 250 256 260 263 267 266 254 243 231 223 221 220 217 213 216 221 227 229 228 233 244 263 285
295 295 294 294 293 290 283 273 263 254 246 243 243 244 246 246 242 237 234 236 242 248 251 251 252 245 235 224 218 214 213 211 209 209 212 218 223 224 229 240 253 271 289
295 296 297 299 298 298 291 278 263 249 240 236 235 236 238 239 236 230 227 228 233 239 240 236 228 220 216 213 211 209 208 209 209 210 213 217 222 230 239 245 255 272 290
294 297 297 297 298 298 296 284 265 247 239 235 232 231 231 232 230 225 220 221 225 229 228 220 211 206 207 211 211 210 211 212 212 214 218 223 229 236 242 249 259 277 298
297 297 295 294 293 293 294 290 271 249 240 234 230 228 228 227 224 220 216 215 219 222 218 212 207 204 206 211 212 211 211 212 215 219 223 228 234 241 247 253 265 285 300
Height
5884 5882 5880 5876 5873 5869 5866 5864 5861 5859 5856 5854 5851 5849 5847 5845 5843 5841 5840 5838 5836 5835 5833 5832 5832 5831 5829 5828 5827 5827 5825 5825 5824 5823 5823 5823 5822 5822 5823 5822 5822 5823 5824
5877 5876 5873 5870 5867 5863 5860 5856 5853 5850 5847 5844 5841 5839 5837 5836 5833 5831 5829 5827 5826 5824 5823 5822 5821 5820 5819 5819 5818 5816 5815 5815 5814 5813 5811 5812 5814 5813 5812 5812 5811 5812 5813
5870 5868 5866 5863 5860 5857 5853 5849 5846 5842 5839 5835 5832 5829 5827 5825 5824 5822 5820 5818 5816 5815 5813 5812 5810 5809 5809 5808 5808 5806 5805 5805 5804 5802 5801 5800 5802 5803 5803 5801 5801 5801 5801
5863 5861 5859 5856 5854 5850 5846 5842 5838 5834 5831 5828 5825 5822 5819 5816 5814 5812 5811 5809 5807 5805 5803 5802 5801 5799 5798 5797 5797 5796 5795 5794 5794 5792 5791 5791 5791 5791 5792 5793 5791 5791 5791
5857 5855 5853 5850 5847 5843 5838 5834 5830 5826 5822 5819 5816 5813 5810 5807 5805 5803 5801 5800 5798 5795 5794 5792 5790 5789 5787 5786 5785 5785 5784 5783 5783 5782 5781 5780 5780 5780 5781 5782 5783 5782 5782
5851 5849 5846 5842 5838 5834 5830 5825 5821 5817 5813 5809 5805 5802 5799 5797 5794 5792 5791 5789 5787 5786 5783 5781 5779 5778 5777 5775 5774 5773 5772 5771 5770 5770 5769 5769 5769 5770 5770 5771 5772 5772 5774
5843 5840 5837 5833 5829 5826 5821 5817 5813 5808 5803 5799 5795 5791 5787 5785 5782 5781 5779 5777 5776 5774 5772 5770 5768 5766 5765 5764 5763 5762 5760 5759 5758 5758 5757 5757 5758 5759 5760 5761 5763 5764 5765
5834 5831 5827 5824 5821 5817 5813 5809 5804 5800 5795 5790 5785 5780 5776 5772 5770 5768 5766 5765 5763 5762 5760 5757 5756 5754 5753 5752 5750 5749 5748 5747 5746 5746 5746 5746 5747 5748 5750 5752 5753 5755 5757
5826 5824 5821 5817 5814 5811 5806 5802 5797 5792 5787 5782 5776 5771 5765 5761 5758 5756 5754 5752 5751 5749 5747 5745 5744 5742 5741 5739 5738 5737 5736 5735 5735 5735 5735 5736 5737 5739 5741 5743 5745 5747 5749
5822 5819 5816 5813 5810 5806 5802 5797 5791 5786 5780 5774 5769 5762 5756 5751 5748 5745 5743 5741 5739 5736 5735 5733 5731 5730 5728 5727 5726 5725 5725 5725 5725 5725 5726 5727 5729 5731 5733 5735 5737 5739 5741
5817 5814 5810 5807 5804 5800 5795 5790 5785 5779 5774 5768 5762 5755 5749 5743 5739 5736 5733 5731 5728 5725 5723 5721 5719 5718 5716 5716 5715 5715 5716 5717 5717 5718 5719 5720 5722 5724 5726 5728 5730 5731 5733
5810 5806 5802 5798 5795 5792 5787 5782 5778 5773 5767 5761 5755 5749 5743 5737 5732 5728 5725 5722 5719 5716 5713 5711 5709 5707 5706 5706 5706 5707 5708 5710 5711 5711 5712 5714 5716 5718 5720 5722 5723 5725 5726
5802 5798 5793 5789 5785 5782 5778 5774 5769 5764 5759 5754 5748 5743 5737 5731 5727 5722 5718 5715 5712 5709 5706 5703 5701 5699 5698 5698 5699 5700 5702 5703 5704 5705 5706 5708 5710 5712 5714 5716 5718 5720 5721
5794 5789 5784 5779 5775 5771 5768 5764 5759 5755 5750 5746 5740 5736 5730 5725 5721 5717 5713 5709 5706 5703 5700 5697 5694 5692 5691 5692 5693 5694 5696 5697 5698 5700 5701 5703 5705 5708 5710 5711 5713 5715 5716
5783 5778 5772 5767 5762 5758 5755 5752 5749 5745 5741 5737 5732 5728 5723 5719 5714 5711 5707 5704 5701 5698 5695 5692 5689 5687 5686 5687 5688 5689 5690 5691 5693 5695 5697 5700 5702 5704 5706 5707 5709 5710 5712
5769 5765 5760 5755 5750 5745 5741 5739 5736 5733 5730 5727 5723 5719 5715 5711 5708 5705 5702 5699 5696 5693 5691 5688 5686 5683 5682 5682 5683 5684 5686 5687 5689 5691 5693 5696 5698 5700 5701 5703 5704 5706 5707
5755 5750 5745 5740 5735 5731 5727 5725 5723 5721 5718 5715 5713 5710 5707 5704 5701 5698 5695 5693 5691 5688 5686 5684 5682 5680 5679 5679 5680 5681 5682 5684 5686 5688 5690 5692 5694 5695 5697 5698 5700 5701 5703
5737 5732 5727 5723 5719 5715 5712 5710 5709 5707 5706 5704 5701 5699 5697 5695 5693 5691 5689 5687 5685 5683 5682 5680 5679 5678 5677 5677 5677 5678 5679 5680 5682 5684 5686 5688 5690 5692 5693 5695 5696 5698 5699
5719 5713 5708 5703 5700 5696 5694 5693 5693 5693 5692 5691 5690 5688 5687 5685 5684 5683 5682 5680 5679 5678 5677 5676 5676 5675 5675 5675 5674 5675 5676 5678 5679 5681 5683 5685 5687 5689 5690 5692 5693 5694 5695
5699 5693 5687 5682 5678 5675 5673 5673 5675 5676 5677 5677 5677 5676 5676 5675 5674 5674 5674 5674 5673 5672 5671 5671 5672 5672 5672 5672 5671 5672 5673 5674 5676 5679 5681 5683 5684 5685 5687 5688 5689 5690 5691
5674 5667 5661 5656 5651 5648 5647 5649 5652 5655 5658 5660 5662 5663 5664 5664 5664 5665 5666 5666 5666 5665 5665 5666 5667 5668 5668 5668 5668 5669 5670 5671 5673 5676 5678 5680 5681 5682 5683 5685 5686 5686 5686
5647 5639 5633 5628 5622 5617 5616 5618 5623 5630 5636 5641 5644 5648 5650 5651 5652 5654 5657 5658 5659 5659 5659 5660 5662 5663 5664 5665 5665 5666 5667 5668 5671 5673 5675 5677 5678 5680 5681 5682 5682 5682 5682
5622 5615 5609 5604 5599 5593 5590 5591 5596 5602 5610 5618 5624 5629 5634 5637 5640 5643 5647 5650 5651 5652 5653 5654 5656 5658 5660 5662 5663 5663 5664 5666 5668 5670 5672 5674 5675 5677 5678 5678 5679 5679 5679
5602 5597 5592 5587 5582 5576 5571 5570 5572 5577 5585 5594 5603 5610 5617 5623 5627 5631 5637 5641 5644 5645 5646 5648 5651 5654 5657 5659 5661 5662 5663 5664 5666 5667 5669 5671 5672 5673 5674 5675 5675 5675 5675
5589 5583 5578 5573 5568 5562 5557 5553 5553 5557 5564 5573 5583 5591 5600 5608 5614 5620 5626 5632 5636 5638 5640 5642 5645 5649 5653 5656 5658 5659 5660 5662 5663 5665 5666 5668 5669 5670 5671 5672 5672 5672 5671
5574 5569 5563 5558 5553 5548 5544 5540 5538 5541 5546 5555 5565 5575 5585 5594 5601 5608 5615 5622 5627 5631 5634 5637 5640 5644 5648 5652 5654 5656 5657 5659 5661 5662 5663 5664 5666 5666 5667 5668 5668 5668 5668